Year,Month,Day,Hour,Minute,Value (Times are PST for temperature in C)
2013,07,31,00,00,15.80
2013,07,31,00,01,15.80
2013,07,31,00,02,15.80
2013,07,31,00,03,15.80
2013,07,31,00,04,15.80
2013,07,31,00,05,15.80
2013,07,31,00,06,15.80
2013,07,31,00,07,15.80
2013,07,31,00,08,15.80
2013,07,31,00,09,15.80
2013,07,31,00,10,15.80
2013,07,31,00,11,15.80
2013,07,31,00,12,15.80
2013,07,31,00,13,15.80
2013,07,31,00,14,15.80
2013,07,31,00,15,15.80
2013,07,31,00,16,15.90
2013,07,31,00,17,15.90
2013,07,31,00,18,15.90
2013,07,31,00,19,15.90
2013,07,31,00,20,15.90
2013,07,31,00,21,15.90
2013,07,31,00,22,15.90
2013,07,31,00,23,15.90
2013,07,31,00,24,15.90
2013,07,31,00,25,15.80
2013,07,31,00,26,15.80
2013,07,31,00,27,15.80
2013,07,31,00,28,15.80
2013,07,31,00,29,15.80
2013,07,31,00,30,15.80
2013,07,31,00,31,15.80
2013,07,31,00,32,15.80
2013,07,31,00,33,15.80
2013,07,31,00,34,15.80
2013,07,31,00,35,15.80
2013,07,31,00,36,15.80
2013,07,31,00,37,15.80
2013,07,31,00,38,15.80
2013,07,31,00,39,15.80
2013,07,31,00,40,15.80
2013,07,31,00,41,15.80
2013,07,31,00,42,15.80
2013,07,31,00,43,15.80
2013,07,31,00,44,15.80
2013,07,31,00,45,15.80
2013,07,31,00,46,15.80
2013,07,31,00,47,15.80
2013,07,31,00,48,15.80
2013,07,31,00,49,15.70
2013,07,31,00,50,15.70
2013,07,31,00,51,15.70
2013,07,31,00,52,15.70
2013,07,31,00,53,15.70
2013,07,31,00,54,15.70
2013,07,31,00,55,15.70
2013,07,31,00,56,15.70
2013,07,31,00,57,15.70
2013,07,31,00,58,15.60
2013,07,31,00,59,15.60
2013,07,31,01,00,15.60
2013,07,31,01,01,15.60
2013,07,31,01,02,15.60
2013,07,31,01,03,15.60
2013,07,31,01,04,15.50
2013,07,31,01,05,15.50
2013,07,31,01,06,15.50
2013,07,31,01,07,15.50
2013,07,31,01,08,15.50
2013,07,31,01,09,15.50
2013,07,31,01,10,15.50
2013,07,31,01,11,15.40
2013,07,31,01,12,15.40
2013,07,31,01,13,15.40
2013,07,31,01,14,15.40
2013,07,31,01,15,15.40
2013,07,31,01,16,15.40
2013,07,31,01,17,15.40
2013,07,31,01,18,15.40
2013,07,31,01,19,15.40
2013,07,31,01,20,15.40
2013,07,31,01,21,15.40
2013,07,31,01,22,15.30
2013,07,31,01,23,15.30
2013,07,31,01,24,15.30
2013,07,31,01,25,15.30
2013,07,31,01,26,15.30
2013,07,31,01,27,15.30
2013,07,31,01,28,15.30
2013,07,31,01,29,15.30
2013,07,31,01,30,15.30
2013,07,31,01,31,15.30
2013,07,31,01,32,15.30
2013,07,31,01,33,15.30
2013,07,31,01,34,15.30
2013,07,31,01,35,15.30
2013,07,31,01,36,15.30
2013,07,31,01,37,15.20
2013,07,31,01,38,15.20
2013,07,31,01,39,15.20
2013,07,31,01,40,15.20
2013,07,31,01,41,15.20
2013,07,31,01,42,15.20
2013,07,31,01,43,15.10
2013,07,31,01,44,15.10
2013,07,31,01,45,15.10
2013,07,31,01,46,15.00
2013,07,31,01,47,15.00
2013,07,31,01,48,15.00
2013,07,31,01,49,15.00
2013,07,31,01,50,15.00
2013,07,31,01,51,15.00
2013,07,31,01,52,15.00
2013,07,31,01,53,15.00
2013,07,31,01,54,15.00
2013,07,31,01,55,15.00
2013,07,31,01,56,15.00
2013,07,31,01,57,15.00
2013,07,31,01,58,15.00
2013,07,31,01,59,15.00
2013,07,31,02,00,15.00
2013,07,31,02,01,15.00
2013,07,31,02,02,15.00
2013,07,31,02,03,14.90
2013,07,31,02,04,14.90
2013,07,31,02,05,14.90
2013,07,31,02,06,14.90
2013,07,31,02,07,14.90
2013,07,31,02,08,14.90
2013,07,31,02,09,14.80
2013,07,31,02,10,14.80
2013,07,31,02,11,14.80
2013,07,31,02,12,14.80
2013,07,31,02,13,14.80
2013,07,31,02,14,14.80
2013,07,31,02,15,14.80
2013,07,31,02,16,14.80
2013,07,31,02,17,14.80
2013,07,31,02,18,14.70
2013,07,31,02,19,14.70
2013,07,31,02,20,14.70
2013,07,31,02,21,14.70
2013,07,31,02,22,14.70
2013,07,31,02,23,14.70
2013,07,31,02,24,14.70
2013,07,31,02,25,14.70
2013,07,31,02,26,14.70
2013,07,31,02,27,14.70
2013,07,31,02,28,14.70
2013,07,31,02,29,14.70
2013,07,31,02,30,14.70
2013,07,31,02,31,14.70
2013,07,31,02,32,14.70
2013,07,31,02,33,14.70
2013,07,31,02,34,14.70
2013,07,31,02,35,14.70
2013,07,31,02,36,14.70
2013,07,31,02,37,14.70
2013,07,31,02,38,14.70
2013,07,31,02,39,14.70
2013,07,31,02,40,14.70
2013,07,31,02,41,14.70
2013,07,31,02,42,14.70
2013,07,31,02,43,14.70
2013,07,31,02,44,14.70
2013,07,31,02,45,14.60
2013,07,31,02,46,14.60
2013,07,31,02,47,14.60
2013,07,31,02,48,14.60
2013,07,31,02,49,14.60
2013,07,31,02,50,14.60
2013,07,31,02,51,14.60
2013,07,31,02,52,14.60
2013,07,31,02,53,14.60
2013,07,31,02,54,14.60
2013,07,31,02,55,14.60
2013,07,31,02,56,14.60
2013,07,31,02,57,14.60
2013,07,31,02,58,14.60
2013,07,31,02,59,14.60
2013,07,31,03,00,14.60
2013,07,31,03,01,14.60
2013,07,31,03,02,14.50
2013,07,31,03,03,14.50
2013,07,31,03,04,14.50
2013,07,31,03,05,14.40
2013,07,31,03,06,14.40
2013,07,31,03,07,14.40
2013,07,31,03,08,14.40
2013,07,31,03,09,14.40
2013,07,31,03,10,14.40
2013,07,31,03,11,14.40
2013,07,31,03,12,14.40
2013,07,31,03,13,14.40
2013,07,31,03,14,14.40
2013,07,31,03,15,14.30
2013,07,31,03,16,14.30
2013,07,31,03,17,14.30
2013,07,31,03,18,14.30
2013,07,31,03,19,14.30
2013,07,31,03,20,14.30
2013,07,31,03,21,14.30
2013,07,31,03,22,14.30
2013,07,31,03,23,14.30
2013,07,31,03,24,14.30
2013,07,31,03,25,14.30
2013,07,31,03,26,14.30
2013,07,31,03,27,14.30
2013,07,31,03,28,14.30
2013,07,31,03,29,14.30
2013,07,31,03,30,14.30
2013,07,31,03,31,14.30
2013,07,31,03,32,14.20
2013,07,31,03,33,14.20
2013,07,31,03,34,14.20
2013,07,31,03,35,14.20
2013,07,31,03,36,14.20
2013,07,31,03,37,14.20
2013,07,31,03,38,14.10
2013,07,31,03,39,14.10
2013,07,31,03,40,14.10
2013,07,31,03,41,14.10
2013,07,31,03,42,14.10
2013,07,31,03,43,14.10
2013,07,31,03,44,14.10
2013,07,31,03,45,14.10
2013,07,31,03,46,14.10
2013,07,31,03,47,14.10
2013,07,31,03,48,14.10
2013,07,31,03,49,14.10
2013,07,31,03,50,14.10
2013,07,31,03,51,14.00
2013,07,31,03,52,14.00
2013,07,31,03,53,14.00
2013,07,31,03,54,14.00
2013,07,31,03,55,13.90
2013,07,31,03,56,13.90
2013,07,31,03,57,13.90
2013,07,31,03,58,13.90
2013,07,31,03,59,13.90
2013,07,31,04,00,13.90
2013,07,31,04,01,13.90
2013,07,31,04,02,13.90
2013,07,31,04,03,13.90
2013,07,31,04,04,13.90
2013,07,31,04,05,13.80
2013,07,31,04,06,13.80
2013,07,31,04,07,13.80
2013,07,31,04,08,13.80
2013,07,31,04,09,13.80
2013,07,31,04,10,13.80
2013,07,31,04,11,13.80
2013,07,31,04,12,13.80
2013,07,31,04,13,13.80
2013,07,31,04,14,13.80
2013,07,31,04,15,13.80
2013,07,31,04,16,13.80
2013,07,31,04,17,13.80
2013,07,31,04,18,13.80
2013,07,31,04,19,13.80
2013,07,31,04,20,13.80
2013,07,31,04,21,13.80
2013,07,31,04,22,13.80
2013,07,31,04,23,13.80
2013,07,31,04,24,13.80
2013,07,31,04,25,13.70
2013,07,31,04,26,13.70
2013,07,31,04,27,13.70
2013,07,31,04,28,13.70
2013,07,31,04,29,13.70
2013,07,31,04,30,13.70
2013,07,31,04,31,13.70
2013,07,31,04,32,13.70
2013,07,31,04,33,13.70
2013,07,31,04,34,13.70
2013,07,31,04,35,13.70
2013,07,31,04,36,13.80
2013,07,31,04,37,13.80
2013,07,31,04,38,13.80
2013,07,31,04,39,13.80
2013,07,31,04,40,13.80
2013,07,31,04,41,13.80
2013,07,31,04,42,13.80
2013,07,31,04,43,13.80
2013,07,31,04,44,13.80
2013,07,31,04,45,13.80
2013,07,31,04,46,13.80
2013,07,31,04,47,13.80
2013,07,31,04,48,13.80
2013,07,31,04,49,13.80
2013,07,31,04,50,13.80
2013,07,31,04,51,13.70
2013,07,31,04,52,13.80
2013,07,31,04,53,13.80
2013,07,31,04,54,13.80
2013,07,31,04,55,13.80
2013,07,31,04,56,13.80
2013,07,31,04,57,13.70
2013,07,31,04,58,13.70
2013,07,31,04,59,13.70
2013,07,31,05,00,13.70
2013,07,31,05,01,13.80
2013,07,31,05,02,13.70
2013,07,31,05,03,13.70
2013,07,31,05,04,13.70
2013,07,31,05,05,13.70
2013,07,31,05,06,13.70
2013,07,31,05,07,13.70
2013,07,31,05,08,13.70
2013,07,31,05,09,13.70
2013,07,31,05,10,13.70
2013,07,31,05,11,13.70
2013,07,31,05,12,13.70
2013,07,31,05,13,13.70
2013,07,31,05,14,13.70
2013,07,31,05,15,13.70
2013,07,31,05,16,13.70
2013,07,31,05,17,13.60
2013,07,31,05,18,13.60
2013,07,31,05,19,13.60
2013,07,31,05,20,13.60
2013,07,31,05,21,13.60
2013,07,31,05,22,13.70
2013,07,31,05,23,13.70
2013,07,31,05,24,13.70
2013,07,31,05,25,13.60
2013,07,31,05,26,13.60
2013,07,31,05,27,13.60
2013,07,31,05,28,13.60
2013,07,31,05,29,13.60
2013,07,31,05,30,13.60
2013,07,31,05,31,13.60
2013,07,31,05,32,13.60
2013,07,31,05,33,13.60
2013,07,31,05,34,13.60
2013,07,31,05,35,13.60
2013,07,31,05,36,13.50
2013,07,31,05,37,13.50
2013,07,31,05,38,13.50
2013,07,31,05,39,13.50
2013,07,31,05,40,13.40
2013,07,31,05,41,13.40
2013,07,31,05,42,13.40
2013,07,31,05,43,13.30
2013,07,31,05,44,13.30
2013,07,31,05,45,13.30
2013,07,31,05,46,13.30
2013,07,31,05,47,13.30
2013,07,31,05,48,13.30
2013,07,31,05,49,13.30
2013,07,31,05,50,13.30
2013,07,31,05,51,13.30
2013,07,31,05,52,13.30
2013,07,31,05,53,13.30
2013,07,31,05,54,13.30
2013,07,31,05,55,13.30
2013,07,31,05,56,13.30
2013,07,31,05,57,13.30
2013,07,31,05,58,13.20
2013,07,31,05,59,13.20
2013,07,31,06,00,13.20
2013,07,31,06,01,13.20
2013,07,31,06,02,13.20
2013,07,31,06,03,13.20
2013,07,31,06,04,13.20
2013,07,31,06,05,13.20
2013,07,31,06,06,13.20
2013,07,31,06,07,13.20
2013,07,31,06,08,13.30
2013,07,31,06,09,13.30
2013,07,31,06,10,13.30
2013,07,31,06,11,13.30
2013,07,31,06,12,13.40
2013,07,31,06,13,13.40
2013,07,31,06,14,13.40
2013,07,31,06,15,13.50
2013,07,31,06,16,13.50
2013,07,31,06,17,13.50
2013,07,31,06,18,13.60
2013,07,31,06,19,13.60
2013,07,31,06,20,13.60
2013,07,31,06,21,13.60
2013,07,31,06,22,13.60
2013,07,31,06,23,13.70
2013,07,31,06,24,13.70
2013,07,31,06,25,13.70
2013,07,31,06,26,13.70
2013,07,31,06,27,13.80
2013,07,31,06,28,13.80
2013,07,31,06,29,13.80
2013,07,31,06,30,13.90
2013,07,31,06,31,13.90
2013,07,31,06,32,13.90
2013,07,31,06,33,14.00
2013,07,31,06,34,14.00
2013,07,31,06,35,14.10
2013,07,31,06,36,14.10
2013,07,31,06,37,14.10
2013,07,31,06,38,14.20
2013,07,31,06,39,14.20
2013,07,31,06,40,14.30
2013,07,31,06,41,14.30
2013,07,31,06,42,14.30
2013,07,31,06,43,14.40
2013,07,31,06,44,14.40
2013,07,31,06,45,14.40
2013,07,31,06,46,14.50
2013,07,31,06,47,14.60
2013,07,31,06,48,14.60
2013,07,31,06,49,14.60
2013,07,31,06,50,14.70
2013,07,31,06,51,14.70
2013,07,31,06,52,14.70
2013,07,31,06,53,14.70
2013,07,31,06,54,14.80
2013,07,31,06,55,14.80
2013,07,31,06,56,14.90
2013,07,31,06,57,14.90
2013,07,31,06,58,15.00
2013,07,31,06,59,15.00
2013,07,31,07,00,15.00
2013,07,31,07,01,15.00
2013,07,31,07,02,15.00
2013,07,31,07,03,15.00
2013,07,31,07,04,15.10
2013,07,31,07,05,15.20
2013,07,31,07,06,15.30
2013,07,31,07,07,15.30
2013,07,31,07,08,15.40
2013,07,31,07,09,15.40
2013,07,31,07,10,15.50
2013,07,31,07,11,15.60
2013,07,31,07,12,15.70
2013,07,31,07,13,15.70
2013,07,31,07,14,15.80
2013,07,31,07,15,15.90
2013,07,31,07,16,16.00
2013,07,31,07,17,16.10
2013,07,31,07,18,16.10
2013,07,31,07,19,16.20
2013,07,31,07,20,16.20
2013,07,31,07,21,16.30
2013,07,31,07,22,16.40
2013,07,31,07,23,16.40
2013,07,31,07,24,16.50
2013,07,31,07,25,16.60
2013,07,31,07,26,16.70
2013,07,31,07,27,16.80
2013,07,31,07,28,16.90
2013,07,31,07,29,17.00
2013,07,31,07,30,17.10
2013,07,31,07,31,17.20
2013,07,31,07,32,17.30
2013,07,31,07,33,17.30
2013,07,31,07,34,17.40
2013,07,31,07,35,17.50
2013,07,31,07,36,17.70
2013,07,31,07,37,17.80
2013,07,31,07,38,17.90
2013,07,31,07,39,18.10
2013,07,31,07,40,18.20
2013,07,31,07,41,18.30
2013,07,31,07,42,18.50
2013,07,31,07,43,18.60
2013,07,31,07,44,18.70
2013,07,31,07,45,18.80
2013,07,31,07,46,18.90
2013,07,31,07,47,19.00
2013,07,31,07,48,19.10
2013,07,31,07,49,19.10
2013,07,31,07,50,19.20
2013,07,31,07,51,19.20
2013,07,31,07,52,19.20
2013,07,31,07,53,19.20
2013,07,31,07,54,19.30
2013,07,31,07,55,19.30
2013,07,31,07,56,19.30
2013,07,31,07,57,19.30
2013,07,31,07,58,19.40
2013,07,31,07,59,19.40
2013,07,31,08,00,19.40
2013,07,31,08,01,19.50
2013,07,31,08,02,19.50
2013,07,31,08,03,19.60
2013,07,31,08,04,19.60
2013,07,31,08,05,19.60
2013,07,31,08,06,19.60
2013,07,31,08,07,19.70
2013,07,31,08,08,19.70
2013,07,31,08,09,19.70
2013,07,31,08,10,19.80
2013,07,31,08,11,19.80
2013,07,31,08,12,19.80
2013,07,31,08,13,19.80
2013,07,31,08,14,19.80
2013,07,31,08,15,19.90
2013,07,31,08,16,19.90
2013,07,31,08,17,19.90
2013,07,31,08,18,19.90
2013,07,31,08,19,19.90
2013,07,31,08,20,19.90
2013,07,31,08,21,19.90
2013,07,31,08,22,19.90
2013,07,31,08,23,19.90
2013,07,31,08,24,20.00
2013,07,31,08,25,19.90
2013,07,31,08,26,20.00
2013,07,31,08,27,20.00
2013,07,31,08,28,20.00
2013,07,31,08,29,20.00
2013,07,31,08,30,19.90
2013,07,31,08,31,19.90
2013,07,31,08,32,19.90
2013,07,31,08,33,19.90
2013,07,31,08,34,19.90
2013,07,31,08,35,19.90
2013,07,31,08,36,19.90
2013,07,31,08,37,19.90
2013,07,31,08,38,20.00
2013,07,31,08,39,20.00
2013,07,31,08,40,20.10
2013,07,31,08,41,20.10
2013,07,31,08,42,20.20
2013,07,31,08,43,20.20
2013,07,31,08,44,20.20
2013,07,31,08,45,20.20
2013,07,31,08,46,20.30
2013,07,31,08,47,20.30
2013,07,31,08,48,20.30
2013,07,31,08,49,20.30
2013,07,31,08,50,20.30
2013,07,31,08,51,20.40
2013,07,31,08,52,20.40
2013,07,31,08,53,20.40
2013,07,31,08,54,20.40
2013,07,31,08,55,20.40
2013,07,31,08,56,20.40
2013,07,31,08,57,20.50
2013,07,31,08,58,20.50
2013,07,31,08,59,20.50
2013,07,31,09,00,20.60
2013,07,31,09,01,20.70
2013,07,31,09,02,20.70
2013,07,31,09,03,20.70
2013,07,31,09,04,20.70
2013,07,31,09,05,20.80
2013,07,31,09,06,20.80
2013,07,31,09,07,20.80
2013,07,31,09,08,20.80
2013,07,31,09,09,20.80
2013,07,31,09,10,20.80
2013,07,31,09,11,20.80
2013,07,31,09,12,20.90
2013,07,31,09,13,20.90
2013,07,31,09,14,21.00
2013,07,31,09,15,21.00
2013,07,31,09,16,21.10
2013,07,31,09,17,21.10
2013,07,31,09,18,21.10
2013,07,31,09,19,21.10
2013,07,31,09,20,21.10
2013,07,31,09,21,21.10
2013,07,31,09,22,21.10
2013,07,31,09,23,21.10
2013,07,31,09,24,21.10
2013,07,31,09,25,21.10
2013,07,31,09,26,21.10
2013,07,31,09,27,21.10
2013,07,31,09,28,21.00
2013,07,31,09,29,21.00
2013,07,31,09,30,20.90
2013,07,31,09,31,20.90
2013,07,31,09,32,20.80
2013,07,31,09,33,20.80
2013,07,31,09,34,20.80
2013,07,31,09,35,20.80
2013,07,31,09,36,20.80
2013,07,31,09,37,20.80
2013,07,31,09,38,20.70
2013,07,31,09,39,20.70
2013,07,31,09,40,20.70
2013,07,31,09,41,20.70
2013,07,31,09,42,20.70
2013,07,31,09,43,20.70
2013,07,31,09,44,20.80
2013,07,31,09,45,20.80
2013,07,31,09,46,20.80
2013,07,31,09,47,20.90
2013,07,31,09,48,20.90
2013,07,31,09,49,21.00
2013,07,31,09,50,21.00
2013,07,31,09,51,21.00
2013,07,31,09,52,21.10
2013,07,31,09,53,21.10
2013,07,31,09,54,21.10
2013,07,31,09,55,21.20
2013,07,31,09,56,21.10
2013,07,31,09,57,21.10
2013,07,31,09,58,21.10
2013,07,31,09,59,21.10
2013,07,31,10,00,21.10
2013,07,31,10,01,21.10
2013,07,31,10,02,21.00
2013,07,31,10,03,20.90
2013,07,31,10,04,20.90
2013,07,31,10,05,20.90
2013,07,31,10,06,20.90
2013,07,31,10,07,20.90
2013,07,31,10,08,20.90
2013,07,31,10,09,20.90
2013,07,31,10,10,20.90
2013,07,31,10,11,20.90
2013,07,31,10,12,20.90
2013,07,31,10,13,20.90
2013,07,31,10,14,20.90
2013,07,31,10,15,21.00
2013,07,31,10,16,21.00
2013,07,31,10,17,21.10
2013,07,31,10,18,21.10
2013,07,31,10,19,21.20
2013,07,31,10,20,21.20
2013,07,31,10,21,21.20
2013,07,31,10,22,21.30
2013,07,31,10,23,21.30
2013,07,31,10,24,21.30
2013,07,31,10,25,21.30
2013,07,31,10,26,21.40
2013,07,31,10,27,21.40
2013,07,31,10,28,21.50
2013,07,31,10,29,21.60
2013,07,31,10,30,21.70
2013,07,31,10,31,21.70
2013,07,31,10,32,21.80
2013,07,31,10,33,21.80
2013,07,31,10,34,21.80
2013,07,31,10,35,21.80
2013,07,31,10,36,21.80
2013,07,31,10,37,21.80
2013,07,31,10,38,21.80
2013,07,31,10,39,21.80
2013,07,31,10,40,21.80
2013,07,31,10,41,21.90
2013,07,31,10,42,22.00
2013,07,31,10,43,22.00
2013,07,31,10,44,22.10
2013,07,31,10,45,22.10
2013,07,31,10,46,22.00
2013,07,31,10,47,22.00
2013,07,31,10,48,22.00
2013,07,31,10,49,21.90
2013,07,31,10,50,21.80
2013,07,31,10,51,21.80
2013,07,31,10,52,21.80
2013,07,31,10,53,21.80
2013,07,31,10,54,21.80
2013,07,31,10,55,21.90
2013,07,31,10,56,21.90
2013,07,31,10,57,21.90
2013,07,31,10,58,22.00
2013,07,31,10,59,22.00
2013,07,31,11,00,21.90
2013,07,31,11,01,21.90
2013,07,31,11,02,21.90
2013,07,31,11,03,21.80
2013,07,31,11,04,21.90
2013,07,31,11,05,21.90
2013,07,31,11,06,22.00
2013,07,31,11,07,22.00
2013,07,31,11,08,22.00
2013,07,31,11,09,22.00
2013,07,31,11,10,22.00
2013,07,31,11,11,21.90
2013,07,31,11,12,21.90
2013,07,31,11,13,21.80
2013,07,31,11,14,21.80
2013,07,31,11,15,21.80
2013,07,31,11,16,21.90
2013,07,31,11,17,22.00
2013,07,31,11,18,22.00
2013,07,31,11,19,22.10
2013,07,31,11,20,22.20
2013,07,31,11,21,22.30
2013,07,31,11,22,22.30
2013,07,31,11,23,22.30
2013,07,31,11,24,22.30
2013,07,31,11,25,22.30
2013,07,31,11,26,22.30
2013,07,31,11,27,22.30
2013,07,31,11,28,22.30
2013,07,31,11,29,22.30
2013,07,31,11,30,22.30
2013,07,31,11,31,22.30
2013,07,31,11,32,22.20
2013,07,31,11,33,22.20
2013,07,31,11,34,22.20
2013,07,31,11,35,22.20
2013,07,31,11,36,22.20
2013,07,31,11,37,22.20
2013,07,31,11,38,22.20
2013,07,31,11,39,22.20
2013,07,31,11,40,22.20
2013,07,31,11,41,22.30
2013,07,31,11,42,22.30
2013,07,31,11,43,22.40
2013,07,31,11,44,22.50
2013,07,31,11,45,22.50
2013,07,31,11,46,22.50
2013,07,31,11,47,22.60
2013,07,31,11,48,22.70
2013,07,31,11,49,22.70
2013,07,31,11,50,22.80
2013,07,31,11,51,22.80
2013,07,31,11,52,22.80
2013,07,31,11,53,22.80
2013,07,31,11,54,22.70
2013,07,31,11,55,22.70
2013,07,31,11,56,22.60
2013,07,31,11,57,22.60
2013,07,31,11,58,22.60
2013,07,31,11,59,22.70
2013,07,31,12,00,22.70
2013,07,31,12,01,22.70
2013,07,31,12,02,22.70
2013,07,31,12,03,22.70
2013,07,31,12,04,22.80
2013,07,31,12,05,22.80
2013,07,31,12,06,22.90
2013,07,31,12,07,22.90
2013,07,31,12,08,23.00
2013,07,31,12,09,23.00
2013,07,31,12,10,22.90
2013,07,31,12,11,22.90
2013,07,31,12,12,22.90
2013,07,31,12,13,22.90
2013,07,31,12,14,22.80
2013,07,31,12,15,22.70
2013,07,31,12,16,22.60
2013,07,31,12,17,22.60
2013,07,31,12,18,22.60
2013,07,31,12,19,22.70
2013,07,31,12,20,22.70
2013,07,31,12,21,22.70
2013,07,31,12,22,22.70
2013,07,31,12,23,22.70
2013,07,31,12,24,22.80
2013,07,31,12,25,22.80
2013,07,31,12,26,22.80
2013,07,31,12,27,22.90
2013,07,31,12,28,22.90
2013,07,31,12,29,22.90
2013,07,31,12,30,22.90
2013,07,31,12,31,22.90
2013,07,31,12,32,22.90
2013,07,31,12,33,23.00
2013,07,31,12,34,23.00
2013,07,31,12,35,23.10
2013,07,31,12,36,23.10
2013,07,31,12,37,23.20
2013,07,31,12,38,23.20
2013,07,31,12,39,23.20
2013,07,31,12,40,23.20
2013,07,31,12,41,23.20
2013,07,31,12,42,23.10
2013,07,31,12,43,23.10
2013,07,31,12,44,23.10
2013,07,31,12,45,23.10
2013,07,31,12,46,23.10
2013,07,31,12,47,23.20
2013,07,31,12,48,23.20
2013,07,31,12,49,23.20
2013,07,31,12,50,23.20
2013,07,31,12,51,23.10
2013,07,31,12,52,23.10
2013,07,31,12,53,23.10
2013,07,31,12,54,23.10
2013,07,31,12,55,23.10
2013,07,31,12,56,23.10
2013,07,31,12,57,23.20
2013,07,31,12,58,23.20
2013,07,31,12,59,23.20
2013,07,31,13,00,23.30
2013,07,31,13,01,23.20
2013,07,31,13,02,23.20
2013,07,31,13,03,23.30
2013,07,31,13,04,23.30
2013,07,31,13,05,23.40
2013,07,31,13,06,23.50
2013,07,31,13,07,23.50
2013,07,31,13,08,23.50
2013,07,31,13,09,23.50
2013,07,31,13,10,23.50
2013,07,31,13,11,23.60
2013,07,31,13,12,23.60
2013,07,31,13,13,23.70
2013,07,31,13,14,23.70
2013,07,31,13,15,23.70
2013,07,31,13,16,23.70
2013,07,31,13,17,23.70
2013,07,31,13,18,23.70
2013,07,31,13,19,23.70
2013,07,31,13,20,23.80
2013,07,31,13,21,23.80
2013,07,31,13,22,23.90
2013,07,31,13,23,24.00
2013,07,31,13,24,24.10
2013,07,31,13,25,24.20
2013,07,31,13,26,24.30
2013,07,31,13,27,24.30
2013,07,31,13,28,24.30
2013,07,31,13,29,24.30
2013,07,31,13,30,24.30
2013,07,31,13,31,24.30
2013,07,31,13,32,24.30
2013,07,31,13,33,24.40
2013,07,31,13,34,24.40
2013,07,31,13,35,24.50
2013,07,31,13,36,24.50
2013,07,31,13,37,24.50
2013,07,31,13,38,24.60
2013,07,31,13,39,24.60
2013,07,31,13,40,24.60
2013,07,31,13,41,24.70
2013,07,31,13,42,24.70
2013,07,31,13,43,24.70
2013,07,31,13,44,24.70
2013,07,31,13,45,24.70
2013,07,31,13,46,24.70
2013,07,31,13,47,24.70
2013,07,31,13,48,24.70
2013,07,31,13,49,24.60
2013,07,31,13,50,24.60
2013,07,31,13,51,24.60
2013,07,31,13,52,24.70
2013,07,31,13,53,24.80
2013,07,31,13,54,24.80
2013,07,31,13,55,24.90
2013,07,31,13,56,24.90
2013,07,31,13,57,24.90
2013,07,31,13,58,24.80
2013,07,31,13,59,24.80
2013,07,31,14,00,24.80
2013,07,31,14,01,24.80
2013,07,31,14,02,24.80
2013,07,31,14,03,24.80
2013,07,31,14,04,24.80
2013,07,31,14,05,24.70
2013,07,31,14,06,24.60
2013,07,31,14,07,24.40
2013,07,31,14,08,24.30
2013,07,31,14,09,24.20
2013,07,31,14,10,24.10
2013,07,31,14,11,24.10
2013,07,31,14,12,24.10
2013,07,31,14,13,24.10
2013,07,31,14,14,24.10
2013,07,31,14,15,24.10
2013,07,31,14,16,24.10
2013,07,31,14,17,24.20
2013,07,31,14,18,24.20
2013,07,31,14,19,24.20
2013,07,31,14,20,24.30
2013,07,31,14,21,24.30
2013,07,31,14,22,24.30
2013,07,31,14,23,24.30
2013,07,31,14,24,24.20
2013,07,31,14,25,24.10
2013,07,31,14,26,23.90
2013,07,31,14,27,23.80
2013,07,31,14,28,23.80
2013,07,31,14,29,23.70
2013,07,31,14,30,23.80
2013,07,31,14,31,23.80
2013,07,31,14,32,23.90
2013,07,31,14,33,24.00
2013,07,31,14,34,24.10
2013,07,31,14,35,24.10
2013,07,31,14,36,24.20
2013,07,31,14,37,24.30
2013,07,31,14,38,24.40
2013,07,31,14,39,24.50
2013,07,31,14,40,24.70
2013,07,31,14,41,24.70
2013,07,31,14,42,24.80
2013,07,31,14,43,24.90
2013,07,31,14,44,24.90
2013,07,31,14,45,24.90
2013,07,31,14,46,25.00
2013,07,31,14,47,25.10
2013,07,31,14,48,25.10
2013,07,31,14,49,25.00
2013,07,31,14,50,25.00
2013,07,31,14,51,24.90
2013,07,31,14,52,24.90
2013,07,31,14,53,24.80
2013,07,31,14,54,24.70
2013,07,31,14,55,24.70
2013,07,31,14,56,24.70
2013,07,31,14,57,24.70
2013,07,31,14,58,24.70
2013,07,31,14,59,24.70
2013,07,31,15,00,24.70
2013,07,31,15,01,24.70
2013,07,31,15,02,24.70
2013,07,31,15,03,24.70
2013,07,31,15,04,24.70
2013,07,31,15,05,24.70
2013,07,31,15,06,24.70
2013,07,31,15,07,24.70
2013,07,31,15,08,24.60
2013,07,31,15,09,24.50
2013,07,31,15,10,24.40
2013,07,31,15,11,24.30
2013,07,31,15,12,24.20
2013,07,31,15,13,24.20
2013,07,31,15,14,24.20
2013,07,31,15,15,24.20
2013,07,31,15,16,24.20
2013,07,31,15,17,24.20
2013,07,31,15,18,24.20
2013,07,31,15,19,24.20
2013,07,31,15,20,24.20
2013,07,31,15,21,24.20
2013,07,31,15,22,24.20
2013,07,31,15,23,24.20
2013,07,31,15,24,24.30
2013,07,31,15,25,24.30
2013,07,31,15,26,24.40
2013,07,31,15,27,24.40
2013,07,31,15,28,24.50
2013,07,31,15,29,24.50
2013,07,31,15,30,24.50
2013,07,31,15,31,24.60
2013,07,31,15,32,24.60
2013,07,31,15,33,24.60
2013,07,31,15,34,24.60
2013,07,31,15,35,24.60
2013,07,31,15,36,24.70
2013,07,31,15,37,24.70
2013,07,31,15,38,24.70
2013,07,31,15,39,24.70
2013,07,31,15,40,24.70
2013,07,31,15,41,24.70
2013,07,31,15,42,24.70
2013,07,31,15,43,24.70
2013,07,31,15,44,24.80
2013,07,31,15,45,24.80
2013,07,31,15,46,24.80
2013,07,31,15,47,24.90
2013,07,31,15,48,24.90
2013,07,31,15,49,24.90
2013,07,31,15,50,24.90
2013,07,31,15,51,24.90
2013,07,31,15,52,25.00
2013,07,31,15,53,25.00
2013,07,31,15,54,25.10
2013,07,31,15,55,25.20
2013,07,31,15,56,25.20
2013,07,31,15,57,25.30
2013,07,31,15,58,25.20
2013,07,31,15,59,25.20
2013,07,31,16,00,25.20
2013,07,31,16,01,25.20
2013,07,31,16,02,25.10
2013,07,31,16,03,25.00
2013,07,31,16,04,24.90
2013,07,31,16,05,24.80
2013,07,31,16,06,24.80
2013,07,31,16,07,24.70
2013,07,31,16,08,24.80
2013,07,31,16,09,24.80
2013,07,31,16,10,24.80
2013,07,31,16,11,24.80
2013,07,31,16,12,24.80
2013,07,31,16,13,24.70
2013,07,31,16,14,24.70
2013,07,31,16,15,24.70
2013,07,31,16,16,24.80
2013,07,31,16,17,24.80
2013,07,31,16,18,24.90
2013,07,31,16,19,24.90
2013,07,31,16,20,24.90
2013,07,31,16,21,25.00
2013,07,31,16,22,25.00
2013,07,31,16,23,25.10
2013,07,31,16,24,25.10
2013,07,31,16,25,25.10
2013,07,31,16,26,25.20
2013,07,31,16,27,25.20
2013,07,31,16,28,25.20
2013,07,31,16,29,25.30
2013,07,31,16,30,25.30
2013,07,31,16,31,25.30
2013,07,31,16,32,25.40
2013,07,31,16,33,25.40
2013,07,31,16,34,25.40
2013,07,31,16,35,25.40
2013,07,31,16,36,25.40
2013,07,31,16,37,25.50
2013,07,31,16,38,25.50
2013,07,31,16,39,25.40
2013,07,31,16,40,25.40
2013,07,31,16,41,25.40
2013,07,31,16,42,25.40
2013,07,31,16,43,25.40
2013,07,31,16,44,25.30
2013,07,31,16,45,25.30
2013,07,31,16,46,25.30
2013,07,31,16,47,25.30
2013,07,31,16,48,25.30
2013,07,31,16,49,25.30
2013,07,31,16,50,25.30
2013,07,31,16,51,25.30
2013,07,31,16,52,25.30
2013,07,31,16,53,25.20
2013,07,31,16,54,25.20
2013,07,31,16,55,25.20
2013,07,31,16,56,25.20
2013,07,31,16,57,25.10
2013,07,31,16,58,25.10
2013,07,31,16,59,25.10
2013,07,31,17,00,25.20
2013,07,31,17,01,25.20
2013,07,31,17,02,25.20
2013,07,31,17,03,25.30
2013,07,31,17,04,25.30
2013,07,31,17,05,25.30
2013,07,31,17,06,25.40
2013,07,31,17,07,25.40
2013,07,31,17,08,25.40
2013,07,31,17,09,25.40
2013,07,31,17,10,25.40
2013,07,31,17,11,25.40
2013,07,31,17,12,25.40
2013,07,31,17,13,25.40
2013,07,31,17,14,25.40
2013,07,31,17,15,25.40
2013,07,31,17,16,25.40
2013,07,31,17,17,25.30
2013,07,31,17,18,25.30
2013,07,31,17,19,25.30